Location: Martz Observatory
(42.0083°N, 79.0667°W)
Time: 08:50:41
(UTC-04:00)

ADEOS Rocket - Pass Details

Date: 26 May 2018
Orbit: 858 x 1307 km, 98.7° (Epoch: 22 October)

Event Time Altitude Azimuth Distance (km) Brightness Sun altitude
Rises 01:37:00 0° 7° (N) 3,491 7.2 -26.6°
Reaches altitude 10° 01:39:31 10° 1° (N) 2,523 6.2 -26.6°
Maximum altitude 01:44:41 43° 291° (WNW) 1,190 3.5 -26.5°
Enters shadow 01:45:38 40° 265° (W) 1,256 3.4 -26.4°
